TGL971C LFBO-LFMN

Flight info

Callsign TGL971C
Flight time 1h 4m
Altitude 31000
Route AMOLO DCT DEGOL DCT FJR DCT MTG/N0409F300 DCT ABLAK
Aircraft A320/M-SDE3FGHIRWY/LB1

Departure

Time 2026-05-01 10:15
Airport Toulouse-Blagnac Airport (LFBO)

Arrival

Time 2026-05-01 11:20
Airport Nice-Côte d'Azur Airport (LFMN)
Time Latitude Longitude Altitude Speed Heading
2026-05-01 09:50 43.62874 1.37420 489 ft 0 kts 51°
2026-05-01 09:58 43.62873 1.37420 494 ft 0 kts 51°
2026-05-01 10:01 43.62866 1.37407 494 ft 2 kts 51°
2026-05-01 10:01 43.62856 1.37389 486 ft 2 kts 51°
2026-05-01 10:01 43.62845 1.37370 489 ft 2 kts 47°
2026-05-01 10:01 43.62831 1.37359 484 ft 2 kts 17°
2026-05-01 10:02 43.62815 1.37351 486 ft 2 kts 350°
2026-05-01 10:02 43.62805 1.37355 489 ft 0 kts 311°
2026-05-01 10:02 43.62805 1.37356 489 ft 0 kts 311°
2026-05-01 10:03 43.62806 1.37353 488 ft 2 kts 313°
2026-05-01 10:03 43.62839 1.37317 486 ft 9 kts 322°
2026-05-01 10:04 43.62896 1.37254 492 ft 10 kts 309°
2026-05-01 10:04 43.62889 1.37170 487 ft 9 kts 236°
2026-05-01 10:04 43.62855 1.37107 493 ft 8 kts 233°
2026-05-01 10:04 43.62835 1.37049 487 ft 6 kts 260°
2026-05-01 10:05 43.62846 1.37003 492 ft 5 kts 308°
2026-05-01 10:05 43.62873 1.36972 493 ft 6 kts 322°
2026-05-01 10:05 43.62908 1.36935 486 ft 7 kts 323°
2026-05-01 10:05 43.62949 1.36892 484 ft 8 kts 322°
2026-05-01 10:06 43.62990 1.36850 484 ft 7 kts 323°
2026-05-01 10:06 43.63028 1.36810 492 ft 7 kts 323°
2026-05-01 10:06 43.63071 1.36767 490 ft 8 kts 323°
2026-05-01 10:06 43.63114 1.36721 492 ft 8 kts 322°
2026-05-01 10:07 43.63166 1.36667 490 ft 11 kts 323°
2026-05-01 10:07 43.63234 1.36597 493 ft 13 kts 323°
2026-05-01 10:07 43.63316 1.36515 489 ft 16 kts 325°
2026-05-01 10:07 43.63407 1.36415 486 ft 17 kts 322°
2026-05-01 10:08 43.63574 1.36241 493 ft 13 kts 323°
2026-05-01 10:08 43.63645 1.36167 485 ft 12 kts 323°
2026-05-01 10:08 43.63707 1.36102 492 ft 10 kts 323°
2026-05-01 10:09 43.63762 1.36046 495 ft 9 kts 323°
2026-05-01 10:09 43.63809 1.35997 495 ft 8 kts 323°
2026-05-01 10:09 43.63854 1.35952 488 ft 8 kts 324°
2026-05-01 10:09 43.63897 1.35908 490 ft 7 kts 324°
2026-05-01 10:10 43.63934 1.35870 490 ft 6 kts 323°
2026-05-01 10:10 43.63972 1.35831 492 ft 8 kts 323°
2026-05-01 10:10 43.64089 1.35709 492 ft 13 kts 324°
2026-05-01 10:11 43.64167 1.35627 491 ft 15 kts 320°
2026-05-01 10:11 43.64257 1.35532 492 ft 17 kts 326°
2026-05-01 10:11 43.64285 1.35398 486 ft 15 kts 244°
2026-05-01 10:11 43.64231 1.35299 489 ft 12 kts 232°
2026-05-01 10:12 43.64185 1.35216 490 ft 10 kts 235°
2026-05-01 10:12 43.64159 1.35167 494 ft 9 kts 232°
2026-05-01 10:12 43.64088 1.35035 493 ft 5 kts 234°
2026-05-01 10:13 43.64069 1.35002 492 ft 3 kts 232°
2026-05-01 10:13 43.64058 1.34984 486 ft 2 kts 224°
2026-05-01 10:13 43.64049 1.34980 495 ft 2 kts 193°
2026-05-01 10:14 43.64024 1.34999 490 ft 0 kts 143°
2026-05-01 10:14 43.64010 1.35014 492 ft 19 kts 143°
2026-05-01 10:14 43.63699 1.35342 489 ft 89 kts 142°
2026-05-01 10:14 43.63054 1.36010 503 ft 140 kts 140°
2026-05-01 10:15 43.62249 1.36828 1057 ft 144 kts 139°
2026-05-01 10:15 43.61799 1.37997 1705 ft 148 kts 91°
2026-05-01 10:15 43.62299 1.39377 2068 ft 180 kts 50°
2026-05-01 10:15 43.63241 1.40633 2504 ft 197 kts 50°
2026-05-01 10:16 43.64273 1.41994 2931 ft 216 kts 50°
2026-05-01 10:16 43.65413 1.43529 3372 ft 241 kts 49°
2026-05-01 10:16 43.67958 1.47016 4851 ft 264 kts 49°
2026-05-01 10:17 43.69209 1.48874 5807 ft 264 kts 58°
2026-05-01 10:17 43.71099 1.53344 7344 ft 281 kts 59°
2026-05-01 10:17 43.72115 1.55674 8191 ft 284 kts 59°
2026-05-01 10:18 43.74193 1.60440 9827 ft 296 kts 60°
2026-05-01 10:18 43.75265 1.62908 10497 ft 306 kts 60°
2026-05-01 10:18 43.76402 1.65531 10766 ft 330 kts 60°
2026-05-01 10:19 43.77611 1.68316 11258 ft 343 kts 60°
2026-05-01 10:19 43.78850 1.71171 12009 ft 348 kts 60°
2026-05-01 10:19 43.80104 1.74067 12717 ft 354 kts 60°
2026-05-01 10:20 43.82655 1.79988 14205 ft 362 kts 60°
2026-05-01 10:20 43.83953 1.83003 14846 ft 366 kts 60°
2026-05-01 10:20 43.85262 1.86045 15518 ft 369 kts 60°
2026-05-01 10:20 43.86579 1.89115 16147 ft 373 kts 60°
2026-05-01 10:21 43.87908 1.92218 16816 ft 376 kts 60°
2026-05-01 10:21 43.90447 1.98638 18050 ft 383 kts 70°
2026-05-01 10:21 43.90973 2.00977 18483 ft 385 kts 78°
2026-05-01 10:22 43.90932 2.09570 19730 ft 388 kts 105°
2026-05-01 10:22 43.89897 2.15728 20599 ft 395 kts 104°
2026-05-01 10:23 43.89273 2.19449 21132 ft 398 kts 104°
2026-05-01 10:23 43.88014 2.26985 22150 ft 405 kts 104°
2026-05-01 10:23 43.87376 2.30809 22623 ft 409 kts 104°
2026-05-01 10:24 43.86076 2.38558 23580 ft 417 kts 104°
2026-05-01 10:24 43.84742 2.46457 24448 ft 422 kts 104°
2026-05-01 10:25 43.83384 2.54440 25202 ft 429 kts 104°
2026-05-01 10:25 43.82000 2.62520 26044 ft 433 kts 104°
2026-05-01 10:26 43.81301 2.66593 26382 ft 437 kts 105°
2026-05-01 10:26 43.80593 2.70694 26774 ft 439 kts 105°
2026-05-01 10:26 43.79160 2.78897 27488 ft 445 kts 105°
2026-05-01 10:27 43.77696 2.87275 28260 ft 449 kts 105°
2026-05-01 10:27 43.76213 2.95735 28951 ft 456 kts 105°
2026-05-01 10:28 43.75464 3.00003 29355 ft 457 kts 105°
2026-05-01 10:28 43.73951 3.08594 30018 ft 462 kts 105°
2026-05-01 10:28 43.73189 3.12911 30402 ft 463 kts 105°
2026-05-01 10:29 43.71644 3.21583 31004 ft 466 kts 105°
2026-05-01 10:29 43.70868 3.25941 31248 ft 467 kts 105°
2026-05-01 10:30 43.67751 3.43335 31314 ft 466 kts 105°
2026-05-01 10:31 43.64606 3.60689 31310 ft 466 kts 105°
2026-05-01 10:32 43.62224 3.73680 31312 ft 465 kts 105°
2026-05-01 10:33 43.59036 3.90986 31329 ft 465 kts 105°
2026-05-01 10:33 43.57464 3.99503 31324 ft 444 kts 104°
2026-05-01 10:34 43.56750 4.03602 31326 ft 436 kts 104°
2026-05-01 10:34 43.55409 4.11715 31323 ft 433 kts 103°
2026-05-01 10:35 43.53406 4.23813 31319 ft 433 kts 103°
2026-05-01 10:35 43.52029 4.31899 31312 ft 433 kts 104°
2026-05-01 10:36 43.49943 4.44017 31297 ft 433 kts 104°
2026-05-01 10:37 43.48555 4.52087 31297 ft 433 kts 104°
2026-05-01 10:37 43.46466 4.64184 31295 ft 433 kts 103°
2026-05-01 10:38 43.45065 4.72243 31295 ft 433 kts 103°
2026-05-01 10:38 43.43645 4.80351 31303 ft 444 kts 104°
2026-05-01 10:39 43.42908 4.84533 31302 ft 455 kts 104°
2026-05-01 10:39 43.42155 4.88801 31304 ft 463 kts 104°
2026-05-01 10:39 43.40628 4.97432 31299 ft 459 kts 103°
2026-05-01 10:40 43.39886 5.01619 31210 ft 444 kts 103°
2026-05-01 10:40 43.39405 5.05731 31086 ft 429 kts 91°
2026-05-01 10:40 43.39540 5.09755 30855 ft 417 kts 79°
2026-05-01 10:40 43.40258 5.13569 30468 ft 409 kts 66°
2026-05-01 10:41 43.41400 5.17114 29942 ft 402 kts 63°
2026-05-01 10:41 43.42556 5.20584 29085 ft 397 kts 63°
2026-05-01 10:41 43.44793 5.27403 27500 ft 383 kts 64°
2026-05-01 10:42 43.45857 5.30691 26655 ft 370 kts 65°
2026-05-01 10:42 43.46883 5.33887 25674 ft 362 kts 65°
2026-05-01 10:42 43.47894 5.37048 24604 ft 359 kts 65°
2026-05-01 10:42 43.48901 5.40161 23558 ft 354 kts 66°
2026-05-01 10:43 43.49906 5.43221 22432 ft 348 kts 66°
2026-05-01 10:43 43.50878 5.46257 21671 ft 346 kts 68°
2026-05-01 10:43 43.51770 5.49306 21351 ft 340 kts 70°
2026-05-01 10:43 43.52613 5.52330 21000 ft 336 kts 71°
2026-05-01 10:44 43.53433 5.55338 20602 ft 334 kts 71°
2026-05-01 10:44 43.54246 5.58329 20240 ft 332 kts 71°
2026-05-01 10:44 43.55059 5.61285 19884 ft 329 kts 71°
2026-05-01 10:44 43.55875 5.64224 19500 ft 327 kts 71°
2026-05-01 10:45 43.56624 5.67166 19155 ft 323 kts 78°
2026-05-01 10:45 43.56971 5.70204 18784 ft 320 kts 86°
2026-05-01 10:45 43.57169 5.73253 18410 ft 318 kts 86°
2026-05-01 10:45 43.57365 5.76228 18092 ft 314 kts 86°
2026-05-01 10:46 43.57562 5.79212 17705 ft 312 kts 85°
2026-05-01 10:46 43.57762 5.82192 17303 ft 311 kts 85°
2026-05-01 10:46 43.57959 5.85156 16968 ft 309 kts 86°
2026-05-01 10:46 43.58155 5.88100 16583 ft 308 kts 85°
2026-05-01 10:47 43.58349 5.91042 16203 ft 308 kts 85°
2026-05-01 10:47 43.58541 5.93981 15975 ft 308 kts 86°
2026-05-01 10:47 43.58732 5.96920 15727 ft 308 kts 86°
2026-05-01 10:47 43.58920 5.99861 15483 ft 308 kts 86°
2026-05-01 10:48 43.59109 6.02802 15241 ft 307 kts 85°
2026-05-01 10:48 43.59301 6.05731 15001 ft 306 kts 85°
2026-05-01 10:48 43.59435 6.08665 14759 ft 306 kts 92°
2026-05-01 10:48 43.59140 6.11551 14525 ft 304 kts 105°
2026-05-01 10:49 43.58436 6.14282 14294 ft 302 kts 111°
2026-05-01 10:49 43.57685 6.16991 14053 ft 302 kts 110°
2026-05-01 10:49 43.56941 6.19704 13786 ft 302 kts 110°
2026-05-01 10:49 43.56199 6.22409 13526 ft 301 kts 110°
2026-05-01 10:50 43.55457 6.25102 13272 ft 300 kts 110°
2026-05-01 10:50 43.54718 6.27780 13008 ft 299 kts 110°
2026-05-01 10:50 43.53979 6.30453 12752 ft 298 kts 110°
2026-05-01 10:50 43.53241 6.33127 12503 ft 298 kts 110°
2026-05-01 10:51 43.52506 6.35791 12246 ft 297 kts 110°
2026-05-01 10:51 43.51774 6.38443 11987 ft 296 kts 110°
2026-05-01 10:51 43.51042 6.41087 11743 ft 295 kts 110°
2026-05-01 10:51 43.50116 6.43601 11496 ft 295 kts 123°
2026-05-01 10:52 43.48797 6.45754 11257 ft 295 kts 133°
2026-05-01 10:52 43.47374 6.47792 11017 ft 295 kts 132°
2026-05-01 10:52 43.45952 6.49836 10776 ft 296 kts 131°
2026-05-01 10:52 43.44533 6.51881 10540 ft 295 kts 131°
2026-05-01 10:53 43.43113 6.53927 10301 ft 296 kts 130°
2026-05-01 10:53 43.41688 6.55979 10048 ft 296 kts 130°
2026-05-01 10:53 43.40272 6.58020 9787 ft 294 kts 130°
2026-05-01 10:53 43.39109 6.60278 9524 ft 287 kts 113°
2026-05-01 10:54 43.38452 6.62793 9272 ft 282 kts 99°
2026-05-01 10:54 43.38259 6.65480 9011 ft 278 kts 90°
2026-05-01 10:54 43.38161 6.68088 8761 ft 275 kts 90°
2026-05-01 10:54 43.38054 6.70703 8505 ft 274 kts 91°
2026-05-01 10:55 43.37944 6.73309 8260 ft 273 kts 91°
2026-05-01 10:55 43.37833 6.75878 8011 ft 266 kts 92°
2026-05-01 10:55 43.37734 6.78380 7764 ft 258 kts 88°
2026-05-01 10:55 43.37835 6.80810 7519 ft 251 kts 84°
2026-05-01 10:56 43.38007 6.83174 7276 ft 247 kts 83°
2026-05-01 10:56 43.38187 6.85492 7041 ft 242 kts 82°
2026-05-01 10:56 43.38344 6.87773 6798 ft 239 kts 83°
2026-05-01 10:56 43.38498 6.90046 6534 ft 238 kts 83°
2026-05-01 10:57 43.38656 6.92312 6188 ft 237 kts 83°
2026-05-01 10:57 43.38811 6.94553 5872 ft 234 kts 83°
2026-05-01 10:57 43.38956 6.96761 5545 ft 230 kts 83°
2026-05-01 10:57 43.39099 6.98940 5220 ft 227 kts 83°
2026-05-01 10:58 43.39279 7.01080 4900 ft 223 kts 75°
2026-05-01 10:58 43.39770 7.03085 4561 ft 220 kts 70°
2026-05-01 10:58 43.40278 7.05055 4228 ft 217 kts 70°
2026-05-01 10:58 43.40778 7.06987 4040 ft 210 kts 69°
2026-05-01 10:59 43.41263 7.08866 4025 ft 208 kts 70°
2026-05-01 10:59 43.41823 7.10702 4027 ft 209 kts 58°
2026-05-01 10:59 43.42766 7.12224 3930 ft 212 kts 42°
2026-05-01 10:59 43.43868 7.13515 3779 ft 204 kts 43°
2026-05-01 11:00 43.44921 7.14763 3637 ft 197 kts 43°
2026-05-01 11:00 43.46001 7.15862 3512 ft 192 kts 28°
2026-05-01 11:00 43.47276 7.16248 3384 ft 192 kts
2026-05-01 11:00 43.48609 7.16122 3252 ft 192 kts
2026-05-01 11:01 43.49931 7.15992 3157 ft 188 kts
2026-05-01 11:01 43.51169 7.15863 3019 ft 170 kts
2026-05-01 11:01 43.52316 7.15745 2803 ft 161 kts
2026-05-01 11:01 43.53396 7.15638 2575 ft 151 kts
2026-05-01 11:02 43.54419 7.15539 2380 ft 144 kts
2026-05-01 11:02 43.55404 7.15446 2191 ft 141 kts
2026-05-01 11:02 43.56379 7.15354 2009 ft 140 kts
2026-05-01 11:02 43.57352 7.15257 1820 ft 141 kts
2026-05-01 11:03 43.58341 7.15164 1621 ft 144 kts
2026-05-01 11:03 43.59343 7.15080 1420 ft 144 kts
2026-05-01 11:03 43.60339 7.15107 1201 ft 143 kts 14°
2026-05-01 11:03 43.61311 7.15387 957 ft 142 kts 25°
2026-05-01 11:04 43.62171 7.16052 753 ft 141 kts 40°
2026-05-01 11:04 43.62923 7.16894 663 ft 139 kts 47°
2026-05-01 11:04 43.63576 7.17872 555 ft 138 kts 52°
2026-05-01 11:04 43.64208 7.18860 416 ft 139 kts 51°
2026-05-01 11:05 43.64855 7.19833 231 ft 137 kts 52°
2026-05-01 11:05 43.65481 7.20819 48 ft 137 kts 48°
2026-05-01 11:05 43.66138 7.21678 87 ft 136 kts 49°
2026-05-01 11:05 43.66845 7.22716 743 ft 154 kts 55°
2026-05-01 11:06 43.67213 7.24158 1400 ft 173 kts 94°
2026-05-01 11:06 43.66786 7.25816 2011 ft 197 kts 119°
2026-05-01 11:06 43.66010 7.27490 2727 ft 215 kts 123°
2026-05-01 11:07 43.64316 7.30961 3675 ft 222 kts 123°
2026-05-01 11:07 43.63437 7.32733 3984 ft 226 kts 123°
2026-05-01 11:07 43.62541 7.34517 4031 ft 226 kts 123°
2026-05-01 11:07 43.61645 7.36299 4028 ft 225 kts 123°
2026-05-01 11:08 43.60612 7.37916 4033 ft 226 kts 137°
2026-05-01 11:08 43.59422 7.39347 4032 ft 227 kts 137°
2026-05-01 11:08 43.57050 7.42227 4023 ft 227 kts 133°
2026-05-01 11:09 43.55860 7.43665 4015 ft 228 kts 134°
2026-05-01 11:09 43.54666 7.45103 4014 ft 228 kts 134°
2026-05-01 11:09 43.53473 7.46544 4014 ft 228 kts 133°
2026-05-01 11:10 43.51043 7.49352 4009 ft 232 kts 147°
2026-05-01 11:10 43.49468 7.49918 4015 ft 241 kts 178°
2026-05-01 11:10 43.47851 7.49276 4010 ft 249 kts 211°
2026-05-01 11:10 43.46999 7.48213 4012 ft 252 kts 234°
2026-05-01 11:11 43.46331 7.46011 4016 ft 251 kts 259°
2026-05-01 11:11 43.45945 7.43651 4017 ft 253 kts 259°
2026-05-01 11:11 43.45432 7.40523 4017 ft 253 kts 258°
2026-05-01 11:11 43.45041 7.38164 4017 ft 253 kts 258°
2026-05-01 11:12 43.44650 7.35808 4019 ft 252 kts 258°
2026-05-01 11:12 43.44254 7.33457 4021 ft 252 kts 258°
2026-05-01 11:12 43.43987 7.31867 4020 ft 252 kts 258°
2026-05-01 11:12 43.43590 7.29504 4023 ft 253 kts 258°
2026-05-01 11:13 43.43201 7.27178 4023 ft 252 kts 258°
2026-05-01 11:13 43.42861 7.24850 4014 ft 237 kts 268°
2026-05-01 11:13 43.42968 7.22707 4019 ft 222 kts 288°
2026-05-01 11:13 43.43522 7.20787 4025 ft 212 kts 306°
2026-05-01 11:14 43.44422 7.19197 4030 ft 207 kts 318°
2026-05-01 11:14 43.45377 7.17726 4055 ft 205 kts 321°
2026-05-01 11:14 43.46476 7.16650 4018 ft 187 kts 341°
2026-05-01 11:14 43.47695 7.16188 3720 ft 179 kts
2026-05-01 11:15 43.48918 7.16082 3455 ft 172 kts
2026-05-01 11:15 43.50096 7.15965 3210 ft 163 kts
2026-05-01 11:15 43.51195 7.15853 2989 ft 155 kts
2026-05-01 11:15 43.52245 7.15750 2792 ft 148 kts
2026-05-01 11:16 43.53254 7.15654 2599 ft 143 kts
2026-05-01 11:16 43.54249 7.15562 2410 ft 144 kts
2026-05-01 11:16 43.55249 7.15468 2192 ft 143 kts
2026-05-01 11:16 43.56222 7.15380 1994 ft 141 kts
2026-05-01 11:17 43.57227 7.15305 1871 ft 143 kts
2026-05-01 11:17 43.58196 7.15440 1826 ft 139 kts 15°
2026-05-01 11:17 43.59181 7.15451 1732 ft 143 kts
2026-05-01 11:17 43.60182 7.15409 1605 ft 143 kts 12°
2026-05-01 11:18 43.61147 7.15617 1425 ft 143 kts 21°
2026-05-01 11:18 43.62047 7.16193 1203 ft 142 kts 39°
2026-05-01 11:18 43.62800 7.17043 982 ft 138 kts 47°
2026-05-01 11:18 43.63480 7.17987 714 ft 139 kts 49°
2026-05-01 11:19 43.64154 7.18926 458 ft 137 kts 47°
2026-05-01 11:19 43.64840 7.19871 205 ft 138 kts 50°
2026-05-01 11:19 43.65494 7.20838 30 ft 132 kts 49°
2026-05-01 11:19 43.66070 7.21640 21 ft 98 kts 44°
2026-05-01 11:20 43.66431 7.22132 23 ft 48 kts 45°
2026-05-01 11:20 43.66585 7.22343 21 ft 25 kts 45°
2026-05-01 11:20 43.66692 7.22477 21 ft 13 kts 34°
2026-05-01 11:20 43.66758 7.22470 22 ft 7 kts 328°
2026-05-01 11:21 43.66777 7.22447 21 ft 2 kts 317°
2026-05-01 11:21 43.66798 7.22419 21 ft 9 kts 315°
2026-05-01 11:21 43.66815 7.22352 22 ft 7 kts 263°
2026-05-01 11:21 43.66791 7.22301 22 ft 6 kts 226°
2026-05-01 11:22 43.66764 7.22263 22 ft 5 kts 225°
2026-05-01 11:22 43.66741 7.22229 22 ft 4 kts 225°
2026-05-01 11:22 43.66719 7.22200 22 ft 5 kts 225°
2026-05-01 11:22 43.66686 7.22153 22 ft 8 kts 226°
2026-05-01 11:23 43.66637 7.22086 22 ft 12 kts 225°
2026-05-01 11:23 43.66598 7.22027 22 ft 6 kts 240°
2026-05-01 11:23 43.66607 7.21960 24 ft 9 kts 308°
2026-05-01 11:23 43.66644 7.21884 22 ft 9 kts 283°
2026-05-01 11:24 43.66616 7.21815 22 ft 8 kts 224°
2026-05-01 11:24 43.66578 7.21763 22 ft 7 kts 225°
2026-05-01 11:24 43.66512 7.21673 22 ft 6 kts 224°
2026-05-01 11:25 43.66502 7.21630 22 ft 4 kts 285°
2026-05-01 11:25 43.66531 7.21582 22 ft 2 kts 312°
2026-05-01 11:25 43.66534 7.21578 22 ft 0 kts 312°